RYR76WJ EDDB-LGKR

Flight info

Callsign RYR76WJ
Flight time N/A
Altitude 35000
Route LUROS4B/06L LUROS M725 HDO DCT EVIKU/N0461F350 DCT VOZ DCT TABEM DCT LANUX DCT INSAX DCT RODON DCT LIMJA N732 PITAS PITAS2J
Aircraft B738/M-SDE3/2105

Departure

Time 2026-05-06 10:01
Airport Berlin Brandenburg Airport (EDDB)

Arrival

Time N/A
Airport Corfu Ioannis Kapodistrias International Airport (LGKR)
Time Latitude Longitude Altitude Speed Heading
2026-05-06 09:26 52.36746 13.50566 143 ft 0 kts 159°
2026-05-06 09:48 52.36757 13.50559 143 ft 2 kts 158°
2026-05-06 09:48 52.36771 13.50550 143 ft 2 kts 159°
2026-05-06 09:49 52.36785 13.50541 143 ft 2 kts 159°
2026-05-06 09:49 52.36800 13.50534 143 ft 2 kts 180°
2026-05-06 09:49 52.36814 13.50540 143 ft 2 kts 205°
2026-05-06 09:49 52.36826 13.50554 143 ft 2 kts 231°
2026-05-06 09:50 52.36832 13.50574 143 ft 1 kts 253°
2026-05-06 09:50 52.36833 13.50576 143 ft 0 kts 254°
2026-05-06 09:55 52.36832 13.50573 143 ft 1 kts 254°
2026-05-06 09:55 52.36826 13.50535 143 ft 3 kts 250°
2026-05-06 09:55 52.36809 13.50465 143 ft 10 kts 248°
2026-05-06 09:55 52.36774 13.50324 141 ft 15 kts 247°
2026-05-06 09:56 52.36777 13.50192 139 ft 12 kts 320°
2026-05-06 09:56 52.36850 13.50140 140 ft 10 kts 341°
2026-05-06 09:56 52.36898 13.50048 141 ft 14 kts 260°
2026-05-06 09:56 52.36848 13.49829 140 ft 26 kts 248°
2026-05-06 09:57 52.36774 13.49513 142 ft 30 kts 249°
2026-05-06 09:57 52.36698 13.49195 140 ft 30 kts 248°
2026-05-06 09:57 52.36623 13.48877 139 ft 29 kts 248°
2026-05-06 09:57 52.36549 13.48565 136 ft 28 kts 248°
2026-05-06 09:58 52.36520 13.48391 136 ft 11 kts 290°
2026-05-06 09:58 52.36552 13.48350 136 ft 0 kts 338°
2026-05-06 09:59 52.36558 13.48347 136 ft 3 kts 338°
2026-05-06 09:59 52.36603 13.48317 136 ft 10 kts 338°
2026-05-06 09:59 52.36682 13.48283 136 ft 11 kts
2026-05-06 09:59 52.36735 13.48362 136 ft 10 kts 62°
2026-05-06 10:00 52.36761 13.48466 136 ft 11 kts 68°
2026-05-06 10:00 52.36872 13.48925 141 ft 84 kts 66°
2026-05-06 10:00 52.37182 13.50237 143 ft 159 kts 68°
2026-05-06 10:00 52.37622 13.52157 498 ft 193 kts 69°
2026-05-06 10:01 52.38031 13.54225 1338 ft 197 kts 71°
2026-05-06 10:01 52.38439 13.56420 1706 ft 202 kts 67°
2026-05-06 10:01 52.38978 13.58467 2490 ft 195 kts 64°
2026-05-06 10:01 52.39555 13.60651 2338 ft 218 kts 64°
2026-05-06 10:02 52.40169 13.62855 2334 ft 203 kts 62°
2026-05-06 10:02 52.40731 13.64930 2875 ft 202 kts 64°
2026-05-06 10:02 52.41268 13.67096 3350 ft 216 kts 66°
2026-05-06 10:02 52.41825 13.69460 3849 ft 229 kts 68°
2026-05-06 10:03 52.42404 13.71955 4370 ft 241 kts 68°
2026-05-06 10:03 52.43015 13.74552 4871 ft 254 kts 68°
2026-05-06 10:03 52.43661 13.77294 5463 ft 263 kts 69°
2026-05-06 10:03 52.44342 13.80120 6131 ft 269 kts 66°
2026-05-06 10:04 52.45112 13.82892 6930 ft 268 kts 62°
2026-05-06 10:04 52.45880 13.85465 8024 ft 252 kts 63°
2026-05-06 10:04 52.46687 13.88146 8298 ft 271 kts 63°
2026-05-06 10:04 52.47520 13.90982 8637 ft 284 kts 64°
2026-05-06 10:05 52.48366 13.93932 9181 ft 290 kts 65°
2026-05-06 10:05 52.49219 13.96944 9834 ft 291 kts 65°
2026-05-06 10:05 52.50075 13.99938 10414 ft 293 kts 65°
2026-05-06 10:05 52.50805 14.03059 10993 ft 295 kts 77°
2026-05-06 10:06 52.51011 14.06376 11579 ft 293 kts 97°
2026-05-06 10:06 52.50592 14.09634 12139 ft 290 kts 113°
2026-05-06 10:06 52.49798 14.12597 12644 ft 290 kts 123°
2026-05-06 10:06 52.48589 14.15323 12808 ft 302 kts 141°
2026-05-06 10:07 52.46847 14.17247 13231 ft 300 kts 161°
2026-05-06 10:07 52.44935 14.18313 13975 ft 294 kts 169°
2026-05-06 10:07 52.42899 14.18990 14233 ft 305 kts 176°
2026-05-06 10:07 52.40741 14.19360 14469 ft 319 kts 179°
2026-05-06 10:08 52.38506 14.19633 14775 ft 331 kts 179°
2026-05-06 10:08 52.36149 14.19929 15114 ft 342 kts 179°
2026-05-06 10:08 52.33731 14.20080 15383 ft 352 kts 182°
2026-05-06 10:08 52.31257 14.19975 15665 ft 362 kts 185°
2026-05-06 10:09 52.28707 14.19763 15959 ft 373 kts 185°
2026-05-06 10:09 52.26087 14.19540 16282 ft 382 kts 185°
2026-05-06 10:09 52.23458 14.19341 16783 ft 386 kts 185°
2026-05-06 10:09 52.20774 14.19164 17409 ft 389 kts 185°
2026-05-06 10:10 52.18044 14.19002 18046 ft 392 kts 184°
2026-05-06 10:10 52.15349 14.18850 18653 ft 395 kts 184°
2026-05-06 10:10 52.12595 14.18698 19226 ft 398 kts 184°
2026-05-06 10:10 52.09811 14.18545 19817 ft 402 kts 184°
2026-05-06 10:11 52.07019 14.18389 20395 ft 405 kts 184°
2026-05-06 10:11 52.04212 14.18231 20939 ft 408 kts 184°
2026-05-06 10:11 52.01379 14.18073 21495 ft 411 kts 184°
2026-05-06 10:11 51.98534 14.17915 22036 ft 414 kts 184°
2026-05-06 10:12 51.95633 14.17753 22581 ft 417 kts 184°
2026-05-06 10:12 51.92746 14.17596 23066 ft 421 kts 184°
2026-05-06 10:12 51.89801 14.17568 23606 ft 424 kts 181°
2026-05-06 10:12 51.86826 14.17865 24091 ft 429 kts 178°